Location: Drocourt
(49.0571°N, 1.7669°E)
Time: 20:24:50
(UTC+00:00)

S-56A Canister/Altair - Pass Details

Date: 16 April 2024
Orbit: 638 x 2488 km, 38.9° (Epoch: 20 May)

Event Time Altitude Azimuth Distance (km) Brightness Sun altitude
Rises 23:10:14 0° 272° (W) 4,595 11.7 -29.7°
Reaches altitude 10° 23:13:28 10° 262° (W) 3,875 11.1 -29.8°
Enters shadow 23:19:44 27° 225° (SW) 3,148 10.3 -29.9°
Maximum altitude 23:22:02 29° 208° (SSW) 3,187 - -30.0°
Drops below altitude 10° 23:32:56 10° 156° (SSE) 4,976 - -30.2°
Sets 23:37:50 0° 147° (SSE) 6,104 - -30.3°
